Location: *
(48.8667°N, 2.3331°E)
Time: 23:08:30
(UTC+00:00)

USA 234 - Pass Details

Date: 09 April 2020
Orbit: 1102 x 1106 km, 123.0° (Epoch: 14 May)

Event Time Altitude Azimuth Distance (km) Brightness Sun altitude
Rises 23:18:00 0° 61° (ENE) 3,925 6.4 -32.6°
Reaches altitude 10° 23:20:32 10° 57° (ENE) 2,966 5.7 -32.7°
Maximum altitude 23:26:52 54° 342° (NNW) 1,320 3.8 -32.8°
Drops below altitude 10° 23:33:11 10° 268° (W) 2,962 5.5 -32.9°
Sets 23:35:43 0° 264° (W) 3,920 6.2 -33.0°
